Time,TemperatureF,DewpointF,PressureIn,WindDirection,WindDirectionDegrees,WindSpeedMPH,WindSpeedGustMPH,Humidity,HourlyPrecipIn,Conditions,Clouds,dailyrainin,SoftwareType,DateUTC
2013-06-30 00:00:00,64.3,58.3,30.00,WNW,285,0.0,2.0,81,0.00,,,0.00,Wunderground v.1.15,2013-06-30 07:00:00,
2013-06-30 00:05:00,64.2,58.2,30.00,WNW,285,0.0,2.0,81,0.00,,,0.00,Wunderground v.1.15,2013-06-30 07:05:00,
2013-06-30 00:10:00,64.0,58.1,30.00,WNW,285,0.0,2.0,81,0.00,,,0.00,Wunderground v.1.15,2013-06-30 07:10:00,
2013-06-30 00:16:00,63.7,58.1,30.00,WNW,285,0.0,2.0,82,0.00,,,0.00,Wunderground v.1.15,2013-06-30 07:16:00,
2013-06-30 00:21:00,63.7,58.1,30.00,WNW,285,0.0,2.0,82,0.00,,,0.00,Wunderground v.1.15,2013-06-30 07:21:00,
2013-06-30 00:26:00,63.4,58.1,30.00,WNW,285,0.0,2.0,83,0.00,,,0.00,Wunderground v.1.15,2013-06-30 07:26:00,
2013-06-30 00:31:00,63.3,58.0,30.00,WNW,285,0.0,2.0,83,0.00,,,0.00,Wunderground v.1.15,2013-06-30 07:31:00,
2013-06-30 00:36:00,63.2,58.3,30.00,WNW,285,0.0,2.0,84,0.00,,,0.00,Wunderground v.1.15,2013-06-30 07:36:00,
2013-06-30 00:42:00,63.0,57.8,30.00,WNW,285,0.0,2.0,83,0.00,,,0.00,Wunderground v.1.15,2013-06-30 07:42:00,
2013-06-30 00:47:00,63.0,57.8,30.00,WNW,285,0.0,2.0,83,0.00,,,0.00,Wunderground v.1.15,2013-06-30 07:47:00,
2013-06-30 00:52:00,62.8,57.6,30.00,WNW,285,0.0,2.0,83,0.00,,,0.00,Wunderground v.1.15,2013-06-30 07:52:00,
2013-06-30 00:57:00,62.7,57.8,30.00,WNW,285,0.0,2.0,84,0.00,,,0.00,Wunderground v.1.15,2013-06-30 07:57:00,
2013-06-30 01:02:00,62.7,57.5,30.00,WNW,286,0.0,2.0,83,0.00,,,0.00,Wunderground v.1.15,2013-06-30 08:02:00,
2013-06-30 01:07:00,62.6,57.4,30.00,WNW,286,0.0,2.0,83,0.00,,,0.00,Wunderground v.1.15,2013-06-30 08:07:00,
2013-06-30 01:12:00,62.5,57.3,30.00,WNW,286,0.0,2.0,83,0.00,,,0.00,Wunderground v.1.15,2013-06-30 08:12:00,
2013-06-30 01:17:00,62.4,56.8,30.00,WNW,289,0.0,2.0,82,0.00,,,0.00,Wunderground v.1.15,2013-06-30 08:17:00,
2013-06-30 01:22:00,62.4,56.8,30.00,WNW,289,1.0,2.0,82,0.00,,,0.00,Wunderground v.1.15,2013-06-30 08:22:00,
2013-06-30 01:27:00,62.1,56.5,30.00,WNW,289,0.0,2.0,82,0.00,,,0.00,Wunderground v.1.15,2013-06-30 08:27:00,
2013-06-30 01:32:00,62.0,56.8,30.00,WNW,289,0.0,2.0,83,0.00,,,0.00,Wunderground v.1.15,2013-06-30 08:32:00,
2013-06-30 01:38:00,61.8,56.9,30.00,WNW,289,0.0,2.0,84,0.00,,,0.00,Wunderground v.1.15,2013-06-30 08:38:00,
2013-06-30 01:43:00,61.7,56.8,30.00,WNW,289,0.0,2.0,84,0.00,,,0.00,Wunderground v.1.15,2013-06-30 08:43:00,
2013-06-30 01:48:00,61.7,56.8,30.00,WNW,289,0.0,2.0,84,0.00,,,0.00,Wunderground v.1.15,2013-06-30 08:48:00,
2013-06-30 01:53:00,61.6,56.4,30.00,WNW,289,0.0,2.0,83,0.00,,,0.00,Wunderground v.1.15,2013-06-30 08:53:00,
2013-06-30 01:58:00,61.6,56.4,30.00,WNW,289,0.0,2.0,83,0.00,,,0.00,Wunderground v.1.15,2013-06-30 08:58:00,
2013-06-30 02:04:00,61.4,56.5,29.99,WNW,289,0.0,2.0,84,0.00,,,0.00,Wunderground v.1.15,2013-06-30 09:04:00,
2013-06-30 02:09:00,61.2,56.0,30.00,WNW,289,0.0,2.0,83,0.00,,,0.00,Wunderground v.1.15,2013-06-30 09:09:00,
2013-06-30 02:14:00,61.1,56.2,30.00,WNW,289,0.0,2.0,84,0.00,,,0.00,Wunderground v.1.15,2013-06-30 09:14:00,
2013-06-30 02:19:00,61.1,56.2,30.00,WNW,290,0.0,2.0,84,0.00,,,0.00,Wunderground v.1.15,2013-06-30 09:19:00,
2013-06-30 02:24:00,61.0,56.1,30.00,WNW,290,0.0,2.0,84,0.00,,,0.00,Wunderground v.1.15,2013-06-30 09:24:00,
2013-06-30 02:29:00,61.0,56.1,29.99,WNW,290,0.0,2.0,84,0.00,,,0.00,Wunderground v.1.15,2013-06-30 09:29:00,
2013-06-30 02:34:00,60.9,56.0,29.99,West,281,0.0,2.0,84,0.00,,,0.00,Wunderground v.1.15,2013-06-30 09:34:00,
2013-06-30 02:39:00,60.8,55.9,29.99,West,281,0.0,2.0,84,0.00,,,0.00,Wunderground v.1.15,2013-06-30 09:39:00,
2013-06-30 02:44:00,60.7,55.8,29.99,WNW,293,0.0,2.0,84,0.00,,,0.00,Wunderground v.1.15,2013-06-30 09:44:00,
2013-06-30 02:49:00,60.5,56.0,29.99,WNW,293,0.0,2.0,85,0.00,,,0.00,Wunderground v.1.15,2013-06-30 09:49:00,
2013-06-30 02:54:00,60.3,55.8,29.99,WNW,293,0.0,2.0,85,0.00,,,0.00,Wunderground v.1.15,2013-06-30 09:54:00,
2013-06-30 02:59:00,60.2,55.7,29.99,WNW,293,0.0,2.0,85,0.00,,,0.00,Wunderground v.1.15,2013-06-30 09:59:00,
2013-06-30 03:05:00,60.2,55.3,29.99,WNW,293,0.0,2.0,84,0.00,,,0.00,Wunderground v.1.15,2013-06-30 10:05:00,
2013-06-30 03:10:00,60.1,55.6,29.99,WNW,293,0.0,2.0,85,0.00,,,0.00,Wunderground v.1.15,2013-06-30 10:10:00,
2013-06-30 03:15:00,60.0,55.5,29.99,WNW,293,0.0,2.0,85,0.00,,,0.00,Wunderground v.1.15,2013-06-30 10:15:00,
2013-06-30 03:20:00,60.0,55.2,29.99,WNW,293,0.0,2.0,84,0.00,,,0.00,Wunderground v.1.15,2013-06-30 10:20:00,
2013-06-30 03:25:00,59.9,55.1,29.99,WNW,293,0.0,2.0,84,0.00,,,0.00,Wunderground v.1.15,2013-06-30 10:25:00,
2013-06-30 03:31:00,59.9,55.1,29.99,WNW,293,0.0,2.0,84,0.00,,,0.00,Wunderground v.1.15,2013-06-30 10:31:00,
2013-06-30 03:36:00,59.8,54.6,29.99,WNW,293,0.0,2.0,83,0.00,,,0.00,Wunderground v.1.15,2013-06-30 10:36:00,
2013-06-30 03:41:00,59.7,54.9,29.98,WNW,293,0.0,2.0,84,0.00,,,0.00,Wunderground v.1.15,2013-06-30 10:41:00,
2013-06-30 03:46:00,59.6,55.1,29.98,WNW,293,0.0,2.0,85,0.00,,,0.00,Wunderground v.1.15,2013-06-30 10:46:00,
2013-06-30 03:51:00,59.5,55.0,29.99,WNW,293,0.0,2.0,85,0.00,,,0.00,Wunderground v.1.15,2013-06-30 10:51:00,
2013-06-30 03:57:00,59.4,54.9,29.98,WNW,293,0.0,2.0,85,0.00,,,0.00,Wunderground v.1.15,2013-06-30 10:57:00,
2013-06-30 04:02:00,59.3,54.8,29.98,WNW,293,0.0,2.0,85,0.00,,,0.00,Wunderground v.1.15,2013-06-30 11:02:00,
2013-06-30 04:07:00,59.2,54.7,29.98,WNW,293,0.0,2.0,85,0.00,,,0.00,Wunderground v.1.15,2013-06-30 11:07:00,
2013-06-30 04:12:00,59.3,54.8,29.98,WNW,293,0.0,2.0,85,0.00,,,0.00,Wunderground v.1.15,2013-06-30 11:12:00,
2013-06-30 04:17:00,59.3,54.8,29.98,WNW,293,0.0,2.0,85,0.00,,,0.00,Wunderground v.1.15,2013-06-30 11:17:00,
2013-06-30 04:23:00,59.1,54.6,29.98,WNW,293,0.0,2.0,85,0.00,,,0.00,Wunderground v.1.15,2013-06-30 11:23:00,
2013-06-30 04:28:00,59.0,54.8,29.98,WNW,293,0.0,2.0,86,0.00,,,0.00,Wunderground v.1.15,2013-06-30 11:28:00,
2013-06-30 04:33:00,58.9,54.7,29.98,WNW,293,0.0,2.0,86,0.00,,,0.00,Wunderground v.1.15,2013-06-30 11:33:00,
2013-06-30 04:38:00,58.9,55.0,29.98,WNW,293,0.0,2.0,87,0.00,,,0.00,Wunderground v.1.15,2013-06-30 11:38:00,
2013-06-30 04:43:00,58.8,54.6,29.98,WNW,293,0.0,2.0,86,0.00,,,0.00,Wunderground v.1.15,2013-06-30 11:43:00,
2013-06-30 04:48:00,58.8,54.9,29.98,WNW,293,0.0,2.0,87,0.00,,,0.00,Wunderground v.1.15,2013-06-30 11:48:00,
2013-06-30 04:53:00,58.7,54.5,29.98,WNW,293,0.0,2.0,86,0.00,,,0.00,Wunderground v.1.15,2013-06-30 11:53:00,
2013-06-30 04:58:00,58.6,54.7,29.98,WNW,293,0.0,2.0,87,0.00,,,0.00,Wunderground v.1.15,2013-06-30 11:58:00,
2013-06-30 05:03:00,58.6,54.7,29.99,WNW,293,0.0,2.0,87,0.00,,,0.00,Wunderground v.1.15,2013-06-30 12:03:00,
2013-06-30 05:08:00,58.4,54.9,29.99,WNW,293,0.0,2.0,88,0.00,,,0.00,Wunderground v.1.15,2013-06-30 12:08:00,
2013-06-30 05:14:00,58.4,54.9,29.99,WNW,293,0.0,2.0,88,0.00,,,0.00,Wunderground v.1.15,2013-06-30 12:14:00,
2013-06-30 05:19:00,58.3,55.1,29.99,WNW,293,0.0,2.0,89,0.00,,,0.00,Wunderground v.1.15,2013-06-30 12:19:00,
2013-06-30 05:24:00,58.3,54.8,29.98,WNW,293,0.0,2.0,88,0.00,,,0.00,Wunderground v.1.15,2013-06-30 12:24:00,
2013-06-30 05:29:00,58.2,54.7,29.98,WNW,293,0.0,2.0,88,0.00,,,0.00,Wunderground v.1.15,2013-06-30 12:29:00,
2013-06-30 05:34:00,58.2,55.0,29.98,WNW,293,0.0,2.0,89,0.00,,,0.00,Wunderground v.1.15,2013-06-30 12:34:00,
2013-06-30 05:39:00,58.2,55.0,29.98,WNW,293,0.0,2.0,89,0.00,,,0.00,Wunderground v.1.15,2013-06-30 12:39:00,
2013-06-30 05:45:00,58.2,55.0,29.98,WNW,293,0.0,2.0,89,0.00,,,0.00,Wunderground v.1.15,2013-06-30 12:45:00,
2013-06-30 05:50:00,58.6,55.1,29.98,WNW,293,0.0,2.0,88,0.00,,,0.00,Wunderground v.1.15,2013-06-30 12:50:00,
2013-06-30 05:55:00,59.7,56.5,29.98,North,11,0.0,2.0,89,0.00,,,0.00,Wunderground v.1.15,2013-06-30 12:55:00,
2013-06-30 06:00:00,60.8,57.2,29.98,North,2,0.0,2.0,88,0.00,,,0.00,Wunderground v.1.15,2013-06-30 13:00:00,
2013-06-30 06:05:00,61.5,57.6,29.98,NNE,29,0.0,2.0,87,0.00,,,0.00,Wunderground v.1.15,2013-06-30 13:05:00,
2013-06-30 06:11:00,61.7,57.8,29.98,NE,39,1.0,4.0,87,0.00,,,0.00,Wunderground v.1.15,2013-06-30 13:11:00,
2013-06-30 06:16:00,61.6,57.7,29.98,NE,37,3.0,5.0,87,0.00,,,0.00,Wunderground v.1.15,2013-06-30 13:16:00,
2013-06-30 06:21:00,61.7,57.8,29.98,NE,52,3.0,3.0,87,0.00,,,0.00,Wunderground v.1.15,2013-06-30 13:21:00,
2013-06-30 06:26:00,61.7,57.8,29.98,NE,49,4.0,6.0,87,0.00,,,0.00,Wunderground v.1.15,2013-06-30 13:26:00,
2013-06-30 06:31:00,61.8,57.6,29.98,NE,45,4.0,6.0,86,0.00,,,0.00,Wunderground v.1.15,2013-06-30 13:31:00,
2013-06-30 06:37:00,62.0,57.8,29.98,NE,43,4.0,6.0,86,0.00,,,0.00,Wunderground v.1.15,2013-06-30 13:37:00,
2013-06-30 06:42:00,62.4,58.2,29.98,NNE,23,3.0,4.0,86,0.00,,,0.00,Wunderground v.1.15,2013-06-30 13:42:00,
2013-06-30 06:47:00,62.5,57.6,29.98,NE,52,3.0,5.0,84,0.00,,,0.00,Wunderground v.1.15,2013-06-30 13:47:00,
2013-06-30 06:52:00,62.3,57.7,29.98,NE,53,4.0,5.0,85,0.00,,,0.00,Wunderground v.1.15,2013-06-30 13:52:00,
2013-06-30 06:57:00,62.6,57.4,29.98,NE,54,4.0,5.0,83,0.00,,,0.00,Wunderground v.1.15,2013-06-30 13:57:00,
2013-06-30 07:04:00,62.8,57.6,29.98,ENE,63,4.0,5.0,83,0.00,,,0.00,Wunderground v.1.15,2013-06-30 14:04:00,
2013-06-30 07:09:00,62.9,57.7,29.98,NE,49,4.0,5.0,83,0.00,,,0.00,Wunderground v.1.15,2013-06-30 14:09:00,
2013-06-30 07:14:00,63.4,57.8,29.98,NE,49,3.0,4.0,82,0.00,,,0.00,Wunderground v.1.15,2013-06-30 14:14:00,
2013-06-30 07:20:00,64.1,57.5,29.98,ENE,58,3.0,3.0,79,0.00,,,0.00,Wunderground v.1.15,2013-06-30 14:20:00,
2013-06-30 07:25:00,65.0,58.0,29.98,NE,56,3.0,3.0,78,0.00,,,0.00,Wunderground v.1.15,2013-06-30 14:25:00,
2013-06-30 07:30:00,65.6,57.5,29.98,NE,48,3.0,4.0,75,0.00,,,0.00,Wunderground v.1.15,2013-06-30 14:30:00,
2013-06-30 07:35:00,65.9,57.7,29.98,NE,53,3.0,6.0,75,0.00,,,0.00,Wunderground v.1.15,2013-06-30 14:35:00,
2013-06-30 07:40:00,65.6,58.2,29.98,NE,54,3.0,4.0,77,0.00,,,0.00,Wunderground v.1.15,2013-06-30 14:40:00,
2013-06-30 07:46:00,65.6,57.8,29.98,NE,44,3.0,4.0,76,0.00,,,0.00,Wunderground v.1.15,2013-06-30 14:46:00,
2013-06-30 07:51:00,65.8,57.7,29.98,ENE,60,3.0,4.0,75,0.00,,,0.00,Wunderground v.1.15,2013-06-30 14:51:00,
2013-06-30 07:56:00,66.1,58.7,29.98,NE,47,3.0,5.0,77,0.00,,,0.00,Wunderground v.1.15,2013-06-30 14:56:00,
2013-06-30 08:01:00,65.7,58.3,29.98,NE,49,3.0,4.0,77,0.00,,,0.00,Wunderground v.1.15,2013-06-30 15:01:00,
2013-06-30 08:06:00,66.0,58.9,29.98,NE,41,3.0,4.0,78,0.00,,,0.00,Wunderground v.1.15,2013-06-30 15:06:00,
2013-06-30 08:11:00,66.1,57.9,29.98,NE,54,2.0,3.0,75,0.00,,,0.00,Wunderground v.1.15,2013-06-30 15:11:00,
2013-06-30 08:16:00,67.0,58.8,29.98,NE,44,2.0,3.0,75,0.00,,,0.00,Wunderground v.1.15,2013-06-30 15:16:00,
2013-06-30 08:21:00,67.1,59.6,29.98,NE,39,2.0,2.0,77,0.00,,,0.00,Wunderground v.1.15,2013-06-30 15:21:00,
2013-06-30 08:27:00,67.1,59.3,29.98,NNE,15,2.0,2.0,76,0.00,,,0.00,Wunderground v.1.15,2013-06-30 15:27:00,
2013-06-30 08:32:00,67.8,59.2,29.98,NE,53,2.0,3.0,74,0.00,,,0.00,Wunderground v.1.15,2013-06-30 15:32:00,
2013-06-30 08:37:00,68.3,60.1,29.98,NE,35,2.0,4.0,75,0.00,,,0.00,Wunderground v.1.15,2013-06-30 15:37:00,
2013-06-30 08:42:00,68.1,59.9,29.98,NE,42,2.0,3.0,75,0.00,,,0.00,Wunderground v.1.15,2013-06-30 15:42:00,
2013-06-30 08:47:00,68.4,59.8,29.97,NE,43,3.0,3.0,74,0.00,,,0.00,Wunderground v.1.15,2013-06-30 15:47:00,
2013-06-30 08:52:00,67.9,59.3,29.97,NE,47,3.0,3.0,74,0.00,,,0.00,Wunderground v.1.15,2013-06-30 15:52:00,
2013-06-30 08:57:00,67.9,60.1,29.97,NE,56,3.0,3.0,76,0.00,,,0.00,Wunderground v.1.15,2013-06-30 15:57:00,
2013-06-30 09:02:00,67.7,60.2,29.97,NNE,32,3.0,4.0,77,0.00,,,0.00,Wunderground v.1.15,2013-06-30 16:02:00,
2013-06-30 09:08:00,67.5,59.7,29.97,ENE,65,3.0,5.0,76,0.00,,,0.00,Wunderground v.1.15,2013-06-30 16:08:00,
2013-06-30 09:13:00,67.5,60.0,29.97,ENE,72,3.0,3.0,77,0.00,,,0.00,Wunderground v.1.15,2013-06-30 16:13:00,
2013-06-30 09:18:00,68.0,60.5,29.97,NE,47,3.0,5.0,77,0.00,,,0.00,Wunderground v.1.15,2013-06-30 16:18:00,
2013-06-30 09:23:00,68.6,60.4,29.97,NE,45,3.0,3.0,75,0.00,,,0.00,Wunderground v.1.15,2013-06-30 16:23:00,
2013-06-30 09:28:00,69.4,60.8,29.97,ENE,59,2.0,3.0,74,0.00,,,0.00,Wunderground v.1.15,2013-06-30 16:28:00,
2013-06-30 09:34:00,70.4,61.3,29.97,NE,44,3.0,4.0,73,0.00,,,0.00,Wunderground v.1.15,2013-06-30 16:34:00,
2013-06-30 09:38:00,71.0,61.1,29.96,ENE,78,3.0,4.0,71,0.00,,,0.00,Wunderground v.1.15,2013-06-30 16:38:00,
2013-06-30 09:43:00,71.8,61.1,29.96,NE,55,3.0,6.0,69,0.00,,,0.00,Wunderground v.1.15,2013-06-30 16:43:00,
2013-06-30 09:48:00,72.0,61.3,29.96,NNE,26,3.0,6.0,69,0.00,,,0.00,Wunderground v.1.15,2013-06-30 16:48:00,
2013-06-30 09:53:00,71.6,62.1,29.96,NE,49,3.0,5.0,72,0.00,,,0.00,Wunderground v.1.15,2013-06-30 16:53:00,
2013-06-30 09:58:00,71.6,62.1,29.96,NE,46,3.0,5.0,72,0.00,,,0.00,Wunderground v.1.15,2013-06-30 16:58:00,
2013-06-30 10:03:00,72.0,62.1,29.96,ENE,60,3.0,6.0,71,0.00,,,0.00,Wunderground v.1.15,2013-06-30 17:03:00,
2013-06-30 10:09:00,73.6,62.4,29.96,ENE,61,3.0,6.0,68,0.00,,,0.00,Wunderground v.1.15,2013-06-30 17:09:00,
2013-06-30 10:14:00,73.4,62.6,29.95,NE,34,3.0,4.0,69,0.00,,,0.00,Wunderground v.1.15,2013-06-30 17:14:00,
2013-06-30 10:19:00,73.1,61.9,29.95,NE,37,3.0,4.0,68,0.00,,,0.00,Wunderground v.1.15,2013-06-30 17:19:00,
2013-06-30 10:24:00,72.7,61.9,29.95,NNE,32,4.0,5.0,69,0.00,,,0.00,Wunderground v.1.15,2013-06-30 17:24:00,
2013-06-30 10:29:00,73.1,61.9,29.95,ENE,76,5.0,8.0,68,0.00,,,0.00,Wunderground v.1.15,2013-06-30 17:29:00,
2013-06-30 10:35:00,73.6,62.4,29.95,NE,46,5.0,5.0,68,0.00,,,0.00,Wunderground v.1.15,2013-06-30 17:35:00,
2013-06-30 10:40:00,74.0,62.3,29.95,NE,55,4.0,4.0,67,0.00,,,0.00,Wunderground v.1.15,2013-06-30 17:40:00,
2013-06-30 10:45:00,74.4,62.7,29.94,NNW,346,4.0,5.0,67,0.00,,,0.00,Wunderground v.1.15,2013-06-30 17:45:00,
2013-06-30 10:50:00,75.4,63.2,29.94,NE,42,5.0,5.0,66,0.00,,,0.00,Wunderground v.1.15,2013-06-30 17:50:00,
2013-06-30 10:55:00,76.1,63.0,29.94,NNE,18,5.0,7.0,64,0.00,,,0.00,Wunderground v.1.15,2013-06-30 17:55:00,
2013-06-30 11:01:00,76.8,62.8,29.94,North,8,5.0,6.0,62,0.00,,,0.00,Wunderground v.1.15,2013-06-30 18:01:00,
2013-06-30 11:06:00,77.1,63.1,29.94,ENE,58,5.0,7.0,62,0.00,,,0.00,Wunderground v.1.15,2013-06-30 18:06:00,
2013-06-30 11:11:00,77.1,62.6,29.94,ENE,59,6.0,8.0,61,0.00,,,0.00,Wunderground v.1.15,2013-06-30 18:11:00,
2013-06-30 11:16:00,77.0,63.0,29.94,ENE,69,6.0,8.0,62,0.00,,,0.00,Wunderground v.1.15,2013-06-30 18:16:00,
2013-06-30 11:21:00,77.4,63.4,29.94,NE,40,5.0,6.0,62,0.00,,,0.00,Wunderground v.1.15,2013-06-30 18:21:00,
2013-06-30 11:27:00,77.6,63.5,29.94,NE,52,5.0,6.0,62,0.00,,,0.00,Wunderground v.1.15,2013-06-30 18:27:00,
2013-06-30 11:32:00,78.0,63.9,29.93,NE,35,5.0,6.0,62,0.00,,,0.00,Wunderground v.1.15,2013-06-30 18:32:00,
2013-06-30 11:37:00,78.6,64.5,29.93,NNW,345,5.0,6.0,62,0.00,,,0.00,Wunderground v.1.15,2013-06-30 18:37:00,
2013-06-30 11:42:00,79.0,63.4,29.93,NE,50,4.0,10.0,59,0.00,,,0.00,Wunderground v.1.15,2013-06-30 18:42:00,
2013-06-30 11:47:00,79.2,63.6,29.93,ENE,72,4.0,10.0,59,0.00,,,0.00,Wunderground v.1.15,2013-06-30 18:47:00,
2013-06-30 11:53:00,79.6,64.0,29.93,ENE,66,4.0,5.0,59,0.00,,,0.00,Wunderground v.1.15,2013-06-30 18:53:00,
2013-06-30 11:58:00,79.6,64.0,29.93,NE,46,4.0,5.0,59,0.00,,,0.00,Wunderground v.1.15,2013-06-30 18:58:00,
2013-06-30 12:03:00,79.4,63.8,29.93,NE,41,3.0,4.0,59,0.00,,,0.00,Wunderground v.1.15,2013-06-30 19:03:00,
2013-06-30 12:08:00,79.0,63.9,29.93,NE,44,3.0,4.0,60,0.00,,,0.00,Wunderground v.1.15,2013-06-30 19:08:00,
2013-06-30 12:13:00,79.6,64.5,29.92,East,81,3.0,5.0,60,0.00,,,0.00,Wunderground v.1.15,2013-06-30 19:13:00,
2013-06-30 12:19:00,80.6,64.0,29.92,ENE,69,3.0,5.0,57,0.00,,,0.00,Wunderground v.1.15,2013-06-30 19:19:00,
2013-06-30 12:24:00,80.8,64.1,29.92,NE,55,4.0,8.0,57,0.00,,,0.00,Wunderground v.1.15,2013-06-30 19:24:00,
2013-06-30 12:29:00,80.9,63.7,29.92,North,5,5.0,8.0,56,0.00,,,0.00,Wunderground v.1.15,2013-06-30 19:29:00,
2013-06-30 12:34:00,81.6,64.4,29.92,NE,37,5.0,5.0,56,0.00,,,0.00,Wunderground v.1.15,2013-06-30 19:34:00,
2013-06-30 12:39:00,81.9,64.1,29.92,NE,51,4.0,9.0,55,0.00,,,0.00,Wunderground v.1.15,2013-06-30 19:39:00,
2013-06-30 12:45:00,81.4,63.7,29.91,NE,44,6.0,11.0,55,0.00,,,0.00,Wunderground v.1.15,2013-06-30 19:45:00,
2013-06-30 12:50:00,81.4,63.2,29.91,NE,42,7.0,7.0,54,0.00,,,0.00,Wunderground v.1.15,2013-06-30 19:50:00,
2013-06-30 12:55:00,81.2,63.5,29.91,West,267,5.0,7.0,55,0.00,,,0.00,Wunderground v.1.15,2013-06-30 19:55:00,
2013-06-30 13:00:00,81.9,63.6,29.91,NE,37,5.0,5.0,54,0.00,,,0.00,Wunderground v.1.15,2013-06-30 20:00:00,
2013-06-30 13:05:00,81.8,63.5,29.91,ENE,58,5.0,7.0,54,0.00,,,0.00,Wunderground v.1.15,2013-06-30 20:05:00,
2013-06-30 13:11:00,81.9,64.1,29.91,NNW,347,5.0,6.0,55,0.00,,,0.00,Wunderground v.1.15,2013-06-30 20:11:00,
2013-06-30 13:16:00,81.9,63.6,29.91,North,6,5.0,10.0,54,0.00,,,0.00,Wunderground v.1.15,2013-06-30 20:16:00,
2013-06-30 13:24:00,82.5,64.2,29.90,ENE,75,5.0,6.0,54,0.00,,,0.00,Wunderground v.1.15,2013-06-30 20:24:00,
2013-06-30 13:29:00,82.8,63.9,29.90,ENE,58,5.0,9.0,53,0.00,,,0.00,Wunderground v.1.15,2013-06-30 20:29:00,
2013-06-30 13:34:00,83.0,64.1,29.90,NE,45,5.0,7.0,53,0.00,,,0.00,Wunderground v.1.15,2013-06-30 20:34:00,
2013-06-30 13:39:00,83.0,64.1,29.90,NNE,17,5.0,7.0,53,0.00,,,0.00,Wunderground v.1.15,2013-06-30 20:39:00,
2013-06-30 13:44:00,83.5,64.6,29.90,NE,41,5.0,8.0,53,0.00,,,0.00,Wunderground v.1.15,2013-06-30 20:44:00,
2013-06-30 13:50:00,84.1,64.6,29.90,North,7,4.0,4.0,52,0.00,,,0.00,Wunderground v.1.15,2013-06-30 20:50:00,
2013-06-30 13:55:00,84.1,64.0,29.90,NE,48,4.0,6.0,51,0.00,,,0.00,Wunderground v.1.15,2013-06-30 20:55:00,
2013-06-30 14:00:00,84.1,64.6,29.90,ENE,61,4.0,4.0,52,0.00,,,0.00,Wunderground v.1.15,2013-06-30 21:00:00,
2013-06-30 14:05:00,84.7,64.6,29.89,ENE,68,4.0,5.0,51,0.00,,,0.00,Wunderground v.1.15,2013-06-30 21:05:00,
2013-06-30 14:10:00,84.7,64.0,29.89,NE,41,4.0,4.0,50,0.00,,,0.00,Wunderground v.1.15,2013-06-30 21:10:00,
2013-06-30 14:16:00,84.5,63.8,29.89,NNE,25,5.0,7.0,50,0.00,,,0.00,Wunderground v.1.15,2013-06-30 21:16:00,
2013-06-30 14:21:00,84.5,63.8,29.89,ENE,72,5.0,5.0,50,0.00,,,0.00,Wunderground v.1.15,2013-06-30 21:21:00,
2013-06-30 14:26:00,84.2,63.5,29.89,ENE,68,5.0,9.0,50,0.00,,,0.00,Wunderground v.1.15,2013-06-30 21:26:00,
2013-06-30 14:31:00,84.5,63.8,29.89,NNE,33,5.0,7.0,50,0.00,,,0.00,Wunderground v.1.15,2013-06-30 21:31:00,
2013-06-30 14:36:00,84.2,64.1,29.89,NE,41,4.0,7.0,51,0.00,,,0.00,Wunderground v.1.15,2013-06-30 21:36:00,
2013-06-30 14:42:00,84.5,63.8,29.89,NE,45,5.0,7.0,50,0.00,,,0.00,Wunderground v.1.15,2013-06-30 21:42:00,
2013-06-30 14:47:00,84.9,63.0,29.88,ENE,68,5.0,9.0,48,0.00,,,0.00,Wunderground v.1.15,2013-06-30 21:47:00,
2013-06-30 14:52:00,85.2,62.7,29.88,NE,56,5.0,6.0,47,0.00,,,0.00,Wunderground v.1.15,2013-06-30 21:52:00,
2013-06-30 14:57:00,85.5,63.0,29.88,NNE,28,5.0,7.0,47,0.00,,,0.00,Wunderground v.1.15,2013-06-30 21:57:00,
2013-06-30 15:02:00,85.9,63.9,29.88,ENE,74,4.0,5.0,48,0.00,,,0.00,Wunderground v.1.15,2013-06-30 22:02:00,
2013-06-30 15:08:00,85.9,63.3,29.88,NE,36,4.0,7.0,47,0.00,,,0.00,Wunderground v.1.15,2013-06-30 22:08:00,
2013-06-30 15:13:00,85.3,63.4,29.87,ENE,59,5.0,6.0,48,0.00,,,0.00,Wunderground v.1.15,2013-06-30 22:13:00,
2013-06-30 15:18:00,85.0,63.1,29.87,NE,47,5.0,7.0,48,0.00,,,0.00,Wunderground v.1.15,2013-06-30 22:18:00,
2013-06-30 15:23:00,84.7,62.8,29.87,NE,46,5.0,6.0,48,0.00,,,0.00,Wunderground v.1.15,2013-06-30 22:23:00,
2013-06-30 15:28:00,84.8,64.1,29.87,NE,48,5.0,6.0,50,0.00,,,0.00,Wunderground v.1.15,2013-06-30 22:28:00,
2013-06-30 15:33:00,85.0,64.3,29.86,North,355,4.0,7.0,50,0.00,,,0.00,Wunderground v.1.15,2013-06-30 22:33:00,
2013-06-30 15:38:00,85.1,63.8,29.86,NNE,23,4.0,7.0,49,0.00,,,0.00,Wunderground v.1.15,2013-06-30 22:38:00,
2013-06-30 15:43:00,85.2,63.9,29.86,ENE,70,4.0,4.0,49,0.00,,,0.00,Wunderground v.1.15,2013-06-30 22:43:00,
2013-06-30 15:48:00,85.2,63.9,29.86,NE,42,4.0,5.0,49,0.00,,,0.00,Wunderground v.1.15,2013-06-30 22:48:00,
2013-06-30 15:53:00,85.3,64.0,29.86,NNE,23,4.0,6.0,49,0.00,,,0.00,Wunderground v.1.15,2013-06-30 22:53:00,
2013-06-30 15:58:00,85.6,63.7,29.86,NNE,23,4.0,6.0,48,0.00,,,0.00,Wunderground v.1.15,2013-06-30 22:58:00,
2013-06-30 16:04:00,85.4,62.9,29.86,NE,44,4.0,6.0,47,0.00,,,0.00,Wunderground v.1.15,2013-06-30 23:04:00,
2013-06-30 16:09:00,85.6,63.1,29.86,ENE,68,5.0,7.0,47,0.00,,,0.00,Wunderground v.1.15,2013-06-30 23:09:00,
2013-06-30 16:14:00,85.9,63.9,29.86,NNW,347,4.0,5.0,48,0.00,,,0.00,Wunderground v.1.15,2013-06-30 23:14:00,
2013-06-30 16:19:00,85.7,63.1,29.85,NNE,26,4.0,6.0,47,0.00,,,0.00,Wunderground v.1.15,2013-06-30 23:19:00,
2013-06-30 16:25:00,85.7,63.8,29.85,NE,49,4.0,5.0,48,0.00,,,0.00,Wunderground v.1.15,2013-06-30 23:25:00,
2013-06-30 16:30:00,86.1,62.9,29.85,ENE,58,4.0,4.0,46,0.00,,,0.00,Wunderground v.1.15,2013-06-30 23:30:00,
2013-06-30 16:35:00,86.4,63.2,29.85,North,11,4.0,6.0,46,0.00,,,0.00,Wunderground v.1.15,2013-06-30 23:35:00,
2013-06-30 16:40:00,86.0,62.8,29.85,NE,39,4.0,5.0,46,0.00,,,0.00,Wunderground v.1.15,2013-06-30 23:40:00,
2013-06-30 16:45:00,86.0,63.4,29.85,NNE,32,4.0,5.0,47,0.00,,,0.00,Wunderground v.1.15,2013-06-30 23:45:00,
2013-06-30 16:50:00,86.4,63.2,29.85,NE,49,4.0,4.0,46,0.00,,,0.00,Wunderground v.1.15,2013-06-30 23:50:00,
2013-06-30 16:56:00,86.2,63.0,29.84,NNE,28,4.0,5.0,46,0.00,,,0.00,Wunderground v.1.15,2013-06-30 23:56:00,
2013-06-30 17:01:00,86.7,62.8,29.84,NE,37,4.0,4.0,45,0.00,,,0.00,Wunderground v.1.15,2013-07-01 00:01:00,
2013-06-30 17:06:00,87.2,62.6,29.84,NNE,30,4.0,4.0,44,0.00,,,0.00,Wunderground v.1.15,2013-07-01 00:06:00,
2013-06-30 17:11:00,87.3,62.1,29.84,NE,44,3.0,3.0,43,0.00,,,0.00,Wunderground v.1.15,2013-07-01 00:11:00,
2013-06-30 17:16:00,87.7,62.4,29.84,NNE,28,3.0,4.0,43,0.00,,,0.00,Wunderground v.1.15,2013-07-01 00:16:00,
2013-06-30 17:22:00,88.0,62.0,29.84,NNE,29,3.0,3.0,42,0.00,,,0.00,Wunderground v.1.15,2013-07-01 00:22:00,
2013-06-30 17:27:00,87.1,65.6,29.84,South,169,3.0,5.0,49,0.00,,,0.00,Wunderground v.1.15,2013-07-01 00:27:00,
2013-06-30 17:32:00,83.8,63.2,29.84,SE,134,3.0,3.0,50,0.00,,,0.00,Wunderground v.1.15,2013-07-01 00:32:00,
2013-06-30 17:37:00,84.5,63.2,29.84,ESE,122,1.0,3.0,49,0.00,,,0.00,Wunderground v.1.15,2013-07-01 00:37:00,
2013-06-30 17:42:00,85.1,66.0,29.84,SSE,157,1.0,2.0,53,0.00,,,0.00,Wunderground v.1.15,2013-07-01 00:42:00,
2013-06-30 17:48:00,84.9,65.3,29.84,ESE,120,1.0,2.0,52,0.00,,,0.00,Wunderground v.1.15,2013-07-01 00:48:00,
2013-06-30 17:53:00,85.7,65.5,29.84,ESE,120,0.0,2.0,51,0.00,,,0.00,Wunderground v.1.15,2013-07-01 00:53:00,
2013-06-30 17:58:00,86.1,65.3,29.84,SSE,150,0.0,2.0,50,0.00,,,0.00,Wunderground v.1.15,2013-07-01 00:58:00,
2013-06-30 18:03:00,86.2,65.9,29.84,SSE,151,1.0,2.0,51,0.00,,,0.00,Wunderground v.1.15,2013-07-01 01:03:00,
2013-06-30 18:08:00,86.1,65.3,29.84,SSE,160,1.0,2.0,50,0.00,,,0.00,Wunderground v.1.15,2013-07-01 01:08:00,
2013-06-30 18:13:00,86.3,64.9,29.84,SSE,163,1.0,2.0,49,0.00,,,0.00,Wunderground v.1.15,2013-07-01 01:13:00,
2013-06-30 18:18:00,85.9,65.7,29.83,NE,56,1.0,2.0,51,0.00,,,0.00,Wunderground v.1.15,2013-07-01 01:18:00,
2013-06-30 18:23:00,84.6,66.7,29.84,NE,47,1.0,2.0,55,0.00,,,0.00,Wunderground v.1.15,2013-07-01 01:23:00,
2013-06-30 18:28:00,84.2,65.2,29.83,NE,49,1.0,2.0,53,0.00,,,0.00,Wunderground v.1.15,2013-07-01 01:28:00,
2013-06-30 18:33:00,84.7,64.6,29.83,NE,47,0.0,2.0,51,0.00,,,0.00,Wunderground v.1.15,2013-07-01 01:33:00,
2013-06-30 18:38:00,85.0,63.1,29.83,NE,53,1.0,2.0,48,0.00,,,0.00,Wunderground v.1.15,2013-07-01 01:38:00,
2013-06-30 18:44:00,85.4,62.9,29.83,NE,45,2.0,3.0,47,0.00,,,0.00,Wunderground v.1.15,2013-07-01 01:44:00,
2013-06-30 18:49:00,85.9,62.7,29.83,NE,44,1.0,3.0,46,0.00,,,0.00,Wunderground v.1.15,2013-07-01 01:49:00,
2013-06-30 18:54:00,85.9,62.7,29.83,North,351,2.0,5.0,46,0.00,,,0.00,Wunderground v.1.15,2013-07-01 01:54:00,
2013-06-30 18:59:00,85.9,63.3,29.83,NE,39,3.0,5.0,47,0.00,,,0.00,Wunderground v.1.15,2013-07-01 01:59:00,
2013-06-30 19:04:00,85.8,62.6,29.83,NNE,31,3.0,6.0,46,0.00,,,0.00,Wunderground v.1.15,2013-07-01 02:04:00,
2013-06-30 19:10:00,85.8,62.6,29.83,North,349,3.0,3.0,46,0.00,,,0.00,Wunderground v.1.15,2013-07-01 02:10:00,
2013-06-30 19:15:00,85.2,63.3,29.83,NE,49,2.0,4.0,48,0.00,,,0.00,Wunderground v.1.15,2013-07-01 02:15:00,
2013-06-30 19:20:00,84.9,63.0,29.83,North,6,2.0,3.0,48,0.00,,,0.00,Wunderground v.1.15,2013-07-01 02:20:00,
2013-06-30 19:25:00,84.6,63.9,29.83,WSW,238,2.0,3.0,50,0.00,,,0.00,Wunderground v.1.15,2013-07-01 02:25:00,
2013-06-30 19:30:00,84.3,63.1,29.83,NE,34,1.0,6.0,49,0.00,,,0.00,Wunderground v.1.15,2013-07-01 02:30:00,
2013-06-30 19:36:00,83.7,63.7,29.83,West,280,2.0,6.0,51,0.00,,,0.00,Wunderground v.1.15,2013-07-01 02:36:00,
2013-06-30 19:41:00,83.3,63.3,29.83,North,358,1.0,2.0,51,0.00,,,0.00,Wunderground v.1.15,2013-07-01 02:41:00,
2013-06-30 19:46:00,83.0,63.6,29.83,WNW,284,1.0,5.0,52,0.00,,,0.00,Wunderground v.1.15,2013-07-01 02:46:00,
2013-06-30 19:51:00,82.7,63.8,29.83,NNE,27,1.0,2.0,53,0.00,,,0.00,Wunderground v.1.15,2013-07-01 02:51:00,
2013-06-30 19:56:00,82.5,63.6,29.84,NW,323,1.0,3.0,53,0.00,,,0.00,Wunderground v.1.15,2013-07-01 02:56:00,
2013-06-30 20:01:00,82.2,62.3,29.84,WNW,290,2.0,5.0,51,0.00,,,0.00,Wunderground v.1.15,2013-07-01 03:01:00,
2013-06-30 20:06:00,82.0,62.6,29.84,North,4,2.0,5.0,52,0.00,,,0.00,Wunderground v.1.15,2013-07-01 03:06:00,
2013-06-30 20:11:00,81.7,62.9,29.84,NNE,18,3.0,6.0,53,0.00,,,0.00,Wunderground v.1.15,2013-07-01 03:11:00,
2013-06-30 20:16:00,81.4,62.6,29.84,WSW,250,4.0,6.0,53,0.00,,,0.00,Wunderground v.1.15,2013-07-01 03:16:00,
2013-06-30 20:21:00,81.1,62.3,29.84,NNE,14,4.0,4.0,53,0.00,,,0.00,Wunderground v.1.15,2013-07-01 03:21:00,
2013-06-30 20:26:00,80.8,62.6,29.84,WNW,296,3.0,6.0,54,0.00,,,0.00,Wunderground v.1.15,2013-07-01 03:26:00,
2013-06-30 20:31:00,80.7,62.5,29.84,NNW,335,3.0,3.0,54,0.00,,,0.00,Wunderground v.1.15,2013-07-01 03:31:00,
2013-06-30 20:37:00,80.5,62.3,29.84,WNW,303,3.0,5.0,54,0.00,,,0.00,Wunderground v.1.15,2013-07-01 03:37:00,
2013-06-30 20:42:00,80.0,62.9,29.84,North,9,3.0,3.0,56,0.00,,,0.00,Wunderground v.1.15,2013-07-01 03:42:00,
2013-06-30 20:47:00,79.6,63.0,29.84,North,352,2.0,5.0,57,0.00,,,0.00,Wunderground v.1.15,2013-07-01 03:47:00,
2013-06-30 20:52:00,79.1,63.1,29.84,NE,41,2.0,2.0,58,0.00,,,0.00,Wunderground v.1.15,2013-07-01 03:52:00,
2013-06-30 20:57:00,78.7,63.2,29.84,West,268,1.0,2.0,59,0.00,,,0.00,Wunderground v.1.15,2013-07-01 03:57:00,
2013-06-30 21:01:00,78.5,63.5,29.84,NNW,330,1.0,2.0,60,0.00,,,0.00,Wunderground v.1.15,2013-07-01 04:01:00,
2013-06-30 21:02:00,78.4,63.4,29.84,NW,323,1.0,2.0,60,0.00,,,0.00,Wunderground v.1.15,2013-07-01 04:02:00,
2013-06-30 21:03:00,78.3,63.3,29.84,North,4,1.0,2.0,60,0.00,,,0.00,Wunderground v.1.15,2013-07-01 04:03:00,
2013-06-30 21:05:00,78.2,63.2,29.84,North,4,1.0,2.0,60,0.00,,,0.00,Wunderground v.1.15,2013-07-01 04:05:00,
2013-06-30 21:06:00,78.1,63.6,29.84,North,9,1.0,2.0,61,0.00,,,0.00,Wunderground v.1.15,2013-07-01 04:06:00,
2013-06-30 21:11:00,77.8,63.3,29.84,North,1,1.0,2.0,61,0.00,,,0.00,Wunderground v.1.15,2013-07-01 04:11:00,
2013-06-30 21:16:00,77.5,63.0,29.84,WNW,283,1.0,2.0,61,0.00,,,0.00,Wunderground v.1.15,2013-07-01 04:16:00,
2013-06-30 21:21:00,77.2,63.2,29.85,NNE,30,1.0,2.0,62,0.00,,,0.00,Wunderground v.1.15,2013-07-01 04:21:00,
2013-06-30 21:26:00,77.1,63.5,29.85,North,359,1.0,2.0,63,0.00,,,0.00,Wunderground v.1.15,2013-07-01 04:26:00,
2013-06-30 21:31:00,76.9,63.3,29.85,WNW,292,1.0,2.0,63,0.00,,,0.00,Wunderground v.1.15,2013-07-01 04:31:00,
2013-06-30 21:37:00,76.7,63.2,29.86,West,269,1.0,2.0,63,0.00,,,0.00,Wunderground v.1.15,2013-07-01 04:37:00,
2013-06-30 21:42:00,76.4,63.3,29.86,North,349,1.0,2.0,64,0.00,,,0.00,Wunderground v.1.15,2013-07-01 04:42:00,
2013-06-30 21:47:00,76.2,63.1,29.86,NW,305,1.0,2.0,64,0.00,,,0.00,Wunderground v.1.15,2013-07-01 04:47:00,
2013-06-30 21:52:00,75.9,62.8,29.86,North,7,1.0,2.0,64,0.00,,,0.00,Wunderground v.1.15,2013-07-01 04:52:00,
2013-06-30 21:57:00,75.7,63.1,29.86,NNE,20,1.0,3.0,65,0.00,,,0.00,Wunderground v.1.15,2013-07-01 04:57:00,
2013-06-30 22:03:00,75.4,63.2,29.86,North,355,1.0,2.0,66,0.00,,,0.00,Wunderground v.1.15,2013-07-01 05:03:00,
2013-06-30 22:08:00,75.0,63.3,29.86,NNE,27,0.0,2.0,67,0.00,,,0.00,Wunderground v.1.15,2013-07-01 05:08:00,
2013-06-30 22:13:00,74.7,63.0,29.86,NNE,26,0.0,2.0,67,0.00,,,0.00,Wunderground v.1.15,2013-07-01 05:13:00,
2013-06-30 22:18:00,74.4,62.7,29.86,WNW,289,0.0,2.0,67,0.00,,,0.00,Wunderground v.1.15,2013-07-01 05:18:00,
2013-06-30 22:23:00,74.1,62.4,29.86,NNW,345,0.0,2.0,67,0.00,,,0.00,Wunderground v.1.15,2013-07-01 05:23:00,
2013-06-30 22:29:00,74.0,62.8,29.86,NE,49,1.0,3.0,68,0.00,,,0.00,Wunderground v.1.15,2013-07-01 05:29:00,
2013-06-30 22:34:00,73.7,62.1,29.86,NW,305,1.0,2.0,67,0.00,,,0.00,Wunderground v.1.15,2013-07-01 05:34:00,
2013-06-30 22:39:00,73.6,62.0,29.87,WNW,295,1.0,2.0,67,0.00,,,0.00,Wunderground v.1.15,2013-07-01 05:39:00,
2013-06-30 22:44:00,73.3,61.7,29.86,North,7,1.0,2.0,67,0.00,,,0.00,Wunderground v.1.15,2013-07-01 05:44:00,
2013-06-30 22:49:00,73.1,61.5,29.87,NNE,18,1.0,2.0,67,0.00,,,0.00,Wunderground v.1.15,2013-07-01 05:49:00,
2013-06-30 22:55:00,72.9,61.7,29.87,NNW,345,1.0,2.0,68,0.00,,,0.00,Wunderground v.1.15,2013-07-01 05:55:00,
2013-06-30 23:00:00,72.6,62.3,29.88,NNW,337,0.0,2.0,70,0.00,,,0.00,Wunderground v.1.15,2013-07-01 06:00:00,
2013-06-30 23:05:00,72.3,61.6,29.88,NNE,15,0.0,2.0,69,0.00,,,0.00,Wunderground v.1.15,2013-07-01 06:05:00,
2013-06-30 23:10:00,72.1,61.8,29.88,NE,37,0.0,2.0,70,0.00,,,0.00,Wunderground v.1.15,2013-07-01 06:10:00,
2013-06-30 23:15:00,71.9,62.0,29.88,North,8,0.0,2.0,71,0.00,,,0.00,Wunderground v.1.15,2013-07-01 06:15:00,
2013-06-30 23:21:00,71.5,61.6,29.88,NE,40,0.0,2.0,71,0.00,,,0.00,Wunderground v.1.15,2013-07-01 06:21:00,
2013-06-30 23:26:00,71.2,61.7,29.89,NNE,26,0.0,2.0,72,0.00,,,0.00,Wunderground v.1.15,2013-07-01 06:26:00,
2013-06-30 23:31:00,71.1,61.6,29.89,WNW,289,1.0,2.0,72,0.00,,,0.00,Wunderground v.1.15,2013-07-01 06:31:00,
2013-06-30 23:36:00,70.9,61.8,29.89,WNW,289,0.0,2.0,73,0.00,,,0.00,Wunderground v.1.15,2013-07-01 06:36:00,
2013-06-30 23:41:00,70.6,61.9,29.89,NW,325,0.0,2.0,74,0.00,,,0.00,Wunderground v.1.15,2013-07-01 06:41:00,
2013-06-30 23:47:00,70.3,61.6,29.89,NW,325,0.0,2.0,74,0.00,,,0.00,Wunderground v.1.15,2013-07-01 06:47:00,
2013-06-30 23:52:00,70.1,61.0,29.89,NNW,331,0.0,2.0,73,0.00,,,0.00,Wunderground v.1.15,2013-07-01 06:52:00,
2013-06-30 23:57:00,69.9,61.2,29.90,NNW,330,0.0,2.0,74,0.00,,,0.00,Wunderground v.1.15,2013-07-01 06:57:00,